Location: Baili�vre
(50.0696°N, 4.2409°E)
Time: 03:08:49
(UTC+00:00)

Cosmos 1378 Rocket - Pass Details

Date: 08 August 2020
Orbit: 600 x 628 km, 82.5° (Epoch: 25 September)

Event Time Altitude Azimuth Distance (km) Brightness Sun altitude
Rises 23:22:02 0° 347° (NNW) 2,931 8.4 -23.9°
Reaches altitude 10° 23:24:17 10° 345° (NNW) 2,018 7.2 -23.9°
Maximum altitude 23:28:43 66° 264° (W) 690 3.7 -24.0°
Enters shadow 23:28:46 66° 260° (W) 690 3.6 -24.0°
